Location: Brasstown Bald
(34.8693°N, 83.8103°W)
Time: 22:55:42
(UTC-05:00)

Amateur Radio Satellites - All Passes

Search period start: 05 March 2015 22:25
Search period end: 06 March 2015 22:25
Location: Brasstown Bald, 34.8693°N, 83.8103°W

Satellite Date Start Highest point End Downlink Frequencies (MHz)
Time Altitude Azimuth
QB50P1 05 Mar 22:33:08 22:34:58 13° 91° (E) 22:37:02 145.935-145.965
GONETS M04 05 Mar 22:36:21 22:44:56 64° 280° (W) 22:53:33
QB50P2 05 Mar 22:37:44 22:40:08 15° 92° (E) 22:42:44 145.880/145.840
UWE-3 05 Mar 22:39:01 22:42:46 26° 264° (W) 22:46:22 435.000/436.395/437.385
ESTCUBE 1 05 Mar 22:42:31 22:46:46 43° 73° (ENE) 22:51:05 437.505/2401.250
50 SAT 05 Mar 22:43:48 22:47:47 80° 258° (WSW) 22:51:45 437.505
DUCHIFAT 1 05 Mar 22:49:10 22:52:14 20° 94° (E) 22:55:25 145.980
UNISAT 6 05 Mar 22:53:12 22:57:22 46° 99° (E) 23:01:37 437.425
POPSAT HIP 1 05 Mar 23:11:33 23:15:30 38° 98° (E) 23:19:26 437.405
POLYITAN 1 05 Mar 23:12:48 23:16:47 41° 98° (E) 23:20:46 437.675
TIGRISAT 05 Mar 23:16:28 23:20:47 87° 102° (ESE) 23:25:10 435.000
HUMSAT D 05 Mar 23:24:43 23:27:40 18° 267° (W) 23:30:27 437.325/437.525
ANTELSAT 05 Mar 23:32:05 23:36:21 59° 285° (WNW) 23:40:40 437.575/2403.000
NANOSAT C BR1 05 Mar 23:33:07 23:37:20 74° 101° (E) 23:41:31 145.865
CUBEBUG 1 05 Mar 23:33:47 23:38:07 51° 260° (W) 23:42:29 437.445
DANDE 05 Mar 23:40:01 23:46:30 48° 97° (E) 23:51:29 436.750
TISAT 1 05 Mar 23:43:48 23:47:47 40° 73° (ENE) 23:51:49 437.305
AISAT 05 Mar 23:44:11 23:47:09 17° 267° (W) 23:49:56 437.250
CUSAT 1 05 Mar 23:49:28 23:55:46 72° 98° (E) 00:00:28 437.405
SPROUT 05 Mar 23:52:11 23:56:25 57° 75° (ENE) 00:00:42 437.525
VELOX 1 05 Mar 23:52:37 23:55:03 14° 269° (W) 23:57:16 145.980
PHONESAT 2.4 05 Mar 23:57:50 23:59:23 12° 218° (SW) 00:00:49 2401.200-2431.200
BUGSAT 1 05 Mar 23:59:00 00:03:08 73° 284° (WNW) 00:07:10 437.445
JUGNU 06 Mar 00:05:01 00:06:39 11° 166° (SSE) 00:08:23 437.505
QB50P1 06 Mar 00:07:08 00:11:07 41° 286° (WNW) 00:15:04 145.935-145.965
QB50P2 06 Mar 00:12:21 00:16:13 35° 287° (WNW) 00:20:03 145.880/145.840
RS-15 06 Mar 00:15:28 00:26:03 52° 308° (NW) 00:36:44 29.354- 29.394
ESTCUBE 1 06 Mar 00:21:18 00:23:55 15° 269° (W) 00:26:19 437.505/2401.250
DUCHIFAT 1 06 Mar 00:24:32 00:28:06 27° 288° (WNW) 00:31:35 145.980
UNISAT 6 06 Mar 00:31:42 00:33:51 13° 292° (WNW) 00:35:48 437.425
SO-50 06 Mar 00:32:29 00:36:42 40° 114° (ESE) 00:41:07 436.795
POPSAT HIP 1 06 Mar 00:48:40 00:51:07 15° 291° (WNW) 00:53:21 437.405
POLYITAN 1 06 Mar 00:50:07 00:52:24 14° 292° (WNW) 00:54:30 437.675
SWISSCUBE 06 Mar 00:58:41 01:03:13 45° 73° (ENE) 01:07:48 437.505
BEESAT 06 Mar 01:06:34 01:11:10 50° 73° (ENE) 01:15:48 436.000
TISAT 1 06 Mar 01:21:27 01:23:49 14° 268° (W) 01:25:58 437.305
DANDE 06 Mar 01:25:10 01:29:48 20° 284° (WNW) 01:33:27 436.750
ITUPSAT 1 06 Mar 01:36:02 01:40:50 79° 259° (W) 01:45:39 437.325
CUSAT 1 06 Mar 01:37:15 01:38:38 11° 286° (WNW) 01:39:34 437.405
BEESAT 3 06 Mar 01:38:07 01:42:03 42° 57° (ENE) 01:45:56 437.485
JUGNU 06 Mar 01:51:11 01:54:57 17° 175° (S) 01:58:45 437.505
Oscar 19 06 Mar 01:54:41 01:59:46 62° 101° (E) 02:04:51 437.125/150
Gurwin Techsat 1B 06 Mar 01:56:12 01:58:46 14° 90° (E) 02:01:39 435.225
STARS 06 Mar 01:56:28 01:59:30 19° 69° (ENE) 02:02:41 437.465
KKS-1 06 Mar 01:57:32 02:01:25 31° 72° (ENE) 02:05:23 437.445
SRMSAT 06 Mar 02:00:48 02:03:26 13° 168° (SSE) 02:06:07 437.500
ITAMSAT 1 06 Mar 02:01:55 02:05:50 22° 94° (E) 02:09:52 435.822/435.867
BEESAT 2 06 Mar 02:07:35 02:11:44 80° 61° (ENE) 02:15:48 435.950
SO-50 06 Mar 02:13:54 02:17:27 21° 311° (NW) 02:21:00 436.795
AIST 2 06 Mar 02:25:14 02:29:19 43° 57° (ENE) 02:33:20 435.215
RS-15 06 Mar 02:35:40 02:42:04 16° 338° (NNW) 02:48:10 29.354- 29.394
SWISSCUBE 06 Mar 02:38:26 02:41:22 15° 268° (W) 02:44:05 437.505
YUBILEINY 06 Mar 02:41:33 02:49:32 38° 74° (ENE) 02:57:38 435.215
BEESAT 06 Mar 02:46:50 02:49:22 14° 269° (W) 02:51:39 436.000
AUBIESAT-1 06 Mar 03:14:55 03:15:34 11° 63° (ENE) 03:16:24 437.475
M-CUBED/EXP-1 PRIME 06 Mar 03:15:19 03:16:44 12° 64° (ENE) 03:18:19 437.505
BEESAT 3 06 Mar 03:17:43 03:19:48 13° 250° (WSW) 03:21:41 437.485
STARS 06 Mar 03:31:46 03:35:48 33° 263° (W) 03:39:46 437.465
Gurwin Techsat 1B 06 Mar 03:34:00 03:39:14 59° 286° (WNW) 03:44:26 435.225
KKS-1 06 Mar 03:34:46 03:38:08 20° 266° (W) 03:41:22 437.445
Oscar 19 06 Mar 03:36:00 03:38:40 14° 294° (WNW) 03:41:05 437.125/150
MOZHAYETS 4 06 Mar 03:36:16 03:39:02 17° 69° (ENE) 03:42:00
JUGNU 06 Mar 03:39:30 03:43:17 17° 185° (S) 03:47:02 437.505
ITAMSAT 1 06 Mar 03:40:40 03:45:28 38° 289° (WNW) 03:50:12 435.822/435.867
SRMSAT 06 Mar 03:47:55 03:51:55 18° 177° (S) 03:55:55 437.500
HORYU 2 06 Mar 03:55:59 04:00:24 62° 101° (E) 04:04:49 437.375
AIST 2 06 Mar 04:05:17 04:07:35 14° 250° (WSW) 04:09:40 435.215
JAS-2 06 Mar 04:05:20 04:11:59 33° 94° (E) 04:18:55 435.910
PCSat 06 Mar 04:11:53 04:13:52 12° 45° (NE) 04:16:08 145.827
AO-7 06 Mar 04:15:06 04:22:58 47° 100° (E) 04:30:54 29.400- 29.500
YUBILEINY 06 Mar 04:38:17 04:46:26 42° 271° (W) 04:54:24 435.215
AUBIESAT-1 06 Mar 04:47:07 04:50:09 33° 258° (WSW) 04:53:18 437.475
M-CUBED/EXP-1 PRIME 06 Mar 04:48:34 04:51:28 27° 259° (WSW) 04:54:26 437.505
RS-15 06 Mar 04:56:32 05:01:15 13° 14° (NNE) 05:06:21 29.354- 29.394
MOZHAYETS 4 06 Mar 05:11:42 05:16:00 40° 262° (W) 05:20:18
JUGNU 06 Mar 05:30:07 05:31:36 11° 194° (SSW) 05:32:59 437.505
HORYU 2 06 Mar 05:35:23 05:36:37 11° 294° (WNW) 05:37:34 437.375
SRMSAT 06 Mar 05:36:43 05:40:25 17° 187° (S) 05:44:05 437.500
STRAND 1 06 Mar 05:43:48 05:47:22 20° 68° (ENE) 05:51:07 437.568
CUBESAT XI-V 06 Mar 05:44:27 05:48:28 30° 72° (ENE) 05:52:35 437.345
JAS-2 06 Mar 05:49:50 05:57:08 49° 289° (WNW) 06:04:33 435.910
PCSat 06 Mar 05:52:43 05:58:11 87° 60° (ENE) 06:03:36 145.827
Cubesat XI-IV 06 Mar 05:57:34 06:01:32 22° 93° (E) 06:05:39 437.490
CUTE-I 06 Mar 06:05:08 06:09:27 25° 95° (E) 06:13:52 437.470
AO-7 06 Mar 06:08:17 06:15:35 35° 296° (WNW) 06:22:44 29.400- 29.500
PRISM 06 Mar 06:28:46 06:32:54 79° 257° (WSW) 06:37:06 437.425
ISS 06 Mar 06:30:31 06:32:15 14° 129° (SE) 06:34:05 145.825
AIST 1 06 Mar 06:36:24 06:40:16 33° 92° (E) 06:44:15
RS-15 06 Mar 07:08:07 07:18:25 38° 46° (NE) 07:29:21 29.354- 29.394
STRAND 1 06 Mar 07:21:26 07:26:18 42° 261° (W) 07:31:11 437.568
CUBESAT XI-V 06 Mar 07:22:11 07:25:56 23° 266° (W) 07:29:37 437.345
Cubesat XI-IV 06 Mar 07:36:49 07:41:49 40° 289° (WNW) 07:46:45 437.490
CUTE-I 06 Mar 07:44:47 07:49:36 34° 290° (WNW) 07:54:20 437.470
ISS 06 Mar 08:05:22 08:08:27 41° 322° (NW) 08:11:31 145.825
AIST 1 06 Mar 08:15:13 08:18:06 17° 287° (WNW) 08:20:50
GOMX 1 06 Mar 08:16:37 08:18:08 12° 90° (E) 08:19:52 467.674
CUTE 1.7 + AOD 2 06 Mar 08:19:14 08:20:57 12° 91° (E) 08:22:55 437.475
BRITE-PL 06 Mar 08:30:00 08:33:47 29° 95° (E) 08:37:28 437.365/2234.400
DOVE 4 06 Mar 08:32:48 08:34:23 12° 90° (E) 08:36:12 437.250
O/OREOS (USA 219) 06 Mar 08:38:02 08:42:28 56° 107° (ESE) 08:47:00 437.305
AAUSAT CUBESAT 2 06 Mar 08:47:39 08:50:11 16° 92° (E) 08:52:54 437.432
GONETS M04 06 Mar 08:50:35 08:59:09 56° 79° (E) 09:07:46
COMPASS 1 06 Mar 08:52:49 08:56:03 22° 94° (E) 08:59:23 437.405
HO-68 06 Mar 09:03:01 09:09:59 52° 100° (E) 09:16:58 435.675
SO-50 06 Mar 09:07:41 09:11:02 18° 47° (NE) 09:14:32 436.795
Oscar 11 06 Mar 09:09:27 09:11:26 13° 91° (E) 09:13:39 145.826/435.025
RS-15 06 Mar 09:20:12 09:31:33 63° 247° (WSW) 09:43:18 29.354- 29.394
SEEDS 06 Mar 09:25:19 09:29:33 69° 101° (E) 09:33:47 437.485
DELFI C3 06 Mar 09:31:36 09:34:24 18° 93° (E) 09:37:20 145.870
CANX-2 06 Mar 09:34:57 09:39:11 66° 284° (WNW) 09:43:25 2200.000
DX 1 06 Mar 09:40:41 09:42:36 13° 91° (E) 09:44:46 434.975-435.025
DUCHIFAT 1 06 Mar 09:40:48 09:41:48 11° 67° (ENE) 09:43:03 145.980
CUBEBUG 2 06 Mar 09:41:39 09:44:55 22° 95° (E) 09:48:17 437.445
CINEMA 3 06 Mar 09:46:57 09:51:00 51° 99° (E) 09:55:04 145.822/145.860
UNISAT 6 06 Mar 09:49:34 09:53:15 28° 72° (ENE) 09:56:58 437.425
GOMX 1 06 Mar 09:52:37 09:56:39 41° 286° (WNW) 10:00:32 467.674
CUTE 1.7 + AOD 2 06 Mar 09:53:06 09:57:10 44° 286° (WNW) 10:01:13 437.475
FUNcube-1 06 Mar 10:01:05 10:04:30 25° 96° (E) 10:08:01 145.935
POPSAT HIP 1 06 Mar 10:01:58 10:05:04 20° 70° (ENE) 10:08:17 437.405
POLYITAN 1 06 Mar 10:03:24 10:06:37 21° 71° (ENE) 10:09:56 437.675
ZACube-1 06 Mar 10:03:44 10:07:16 27° 96° (E) 10:10:55 437.345
UKube-1 06 Mar 10:03:51 10:07:19 24° 95° (E) 10:10:51 .
DOVE 4 06 Mar 10:08:33 10:12:30 40° 286° (WNW) 10:16:21 437.250
BRITE-PL 06 Mar 10:09:05 10:12:10 18° 291° (WNW) 10:15:01 437.365/2234.400
VELOX 1 06 Mar 10:10:42 10:11:39 11° 90° (E) 10:12:54 145.980
TIGRISAT 06 Mar 10:12:05 10:16:19 49° 75° (ENE) 10:20:30 435.000
O/OREOS (USA 219) 06 Mar 10:20:11 10:22:22 13° 304° (NW) 10:24:20 437.305
AAUSAT CUBESAT 2 06 Mar 10:22:10 10:25:58 33° 287° (WNW) 10:29:44 437.432
NANOSAT C BR1 06 Mar 10:22:41 10:26:33 35° 73° (ENE) 10:30:28 145.865
50 SAT 06 Mar 10:26:45 10:29:12 16° 93° (E) 10:31:48 437.505
ANTELSAT 06 Mar 10:27:45 10:32:09 81° 77° (ENE) 10:36:29 437.575/2403.000
COMPASS 1 06 Mar 10:28:14 10:31:44 25° 288° (WNW) 10:35:09 437.405
UWE-3 06 Mar 10:31:28 10:35:38 78° 101° (ESE) 10:39:51 435.000/436.395/437.385
CUSAT 1 06 Mar 10:32:45 10:34:42 18° 78° (ENE) 10:36:52 437.405
ESTCUBE 1 06 Mar 10:40:49 10:42:23 12° 90° (E) 10:44:14 437.505/2401.250
Oscar 11 06 Mar 10:43:45 10:47:53 43° 286° (WNW) 10:51:58 145.826/435.025
BUGSAT 1 06 Mar 10:45:34 10:49:40 48° 74° (ENE) 10:53:49 437.445
SO-50 06 Mar 10:47:09 10:51:58 54° 244° (WSW) 10:56:44 436.795
GONETS M04 06 Mar 10:48:27 10:55:32 27° 275° (W) 11:02:20
HO-68 06 Mar 10:51:29 10:57:23 27° 296° (WNW) 11:03:06 435.675
QB50P1 06 Mar 10:56:09 11:00:27 88° 256° (WSW) 11:04:45 145.935-145.965
QB50P2 06 Mar 11:01:29 11:05:46 75° 258° (WSW) 11:10:03 145.880/145.840
DELFI C3 06 Mar 11:06:07 11:09:39 28° 288° (WNW) 11:13:07 145.870
HUMSAT D 06 Mar 11:10:47 11:14:55 87° 283° (WNW) 11:19:04 437.325/437.525
DUCHIFAT 1 06 Mar 11:13:01 11:17:14 55° 260° (W) 11:21:26 145.980
DX 1 06 Mar 11:15:00 11:19:10 44° 286° (WNW) 11:23:16 434.975-435.025
CUBEBUG 2 06 Mar 11:18:15 11:21:35 23° 288° (WNW) 11:24:53 437.445
CUBEBUG 1 06 Mar 11:26:21 11:30:24 36° 97° (E) 11:34:26 437.445
UNISAT 6 06 Mar 11:26:42 11:30:04 21° 265° (W) 11:33:18 437.425
CINEMA 3 06 Mar 11:26:48 11:27:52 11° 292° (WNW) 11:28:39 145.822/145.860
AISAT 06 Mar 11:36:42 11:41:06 65° 285° (WNW) 11:45:28 437.250
POPSAT HIP 1 06 Mar 11:37:04 11:40:50 28° 264° (W) 11:44:31 437.405
FUNcube-1 06 Mar 11:37:33 11:40:46 21° 289° (WNW) 11:43:54 145.935
POLYITAN 1 06 Mar 11:38:45 11:42:26 27° 264° (W) 11:46:02 437.675
UKube-1 06 Mar 11:39:51 11:43:25 25° 289° (WNW) 11:46:53 .
ZACube-1 06 Mar 11:40:28 11:43:32 20° 289° (WNW) 11:46:30 437.345
SPROUT 06 Mar 11:44:15 11:46:04 13° 91° (E) 11:48:07 437.525
VELOX 1 06 Mar 11:44:18 11:48:39 54° 286° (WNW) 11:52:57 145.980
TIGRISAT 06 Mar 11:51:50 11:53:25 11° 269° (W) 11:54:42 435.000
NANOSAT C BR1 06 Mar 11:59:49 12:02:34 16° 267° (W) 12:05:08 145.865
50 SAT 06 Mar 12:00:49 12:04:17 29° 287° (WNW) 12:07:42 437.505
DANDE 06 Mar 12:10:41 12:11:48 12° 265° (W) 12:12:51 436.750
ESTCUBE 1 06 Mar 12:15:12 12:19:39 52° 286° (WNW) 12:24:04 437.505/2401.250
BUGSAT 1 06 Mar 12:23:52 12:25:29 12° 270° (W) 12:26:50 437.445
CUBEBUG 1 06 Mar 13:03:38 13:06:31 17° 291° (WNW) 13:09:13 437.445
SWISSCUBE 06 Mar 13:03:51 13:06:33 15° 92° (E) 13:09:29 437.505
TISAT 1 06 Mar 13:07:21 13:11:33 67° 284° (WNW) 13:15:41 437.305
Oscar 19 06 Mar 13:08:10 13:13:14 64° 75° (ENE) 13:18:20 437.125/150
BEESAT 06 Mar 13:11:24 13:14:27 17° 92° (E) 13:17:40 436.000
Gurwin Techsat 1B 06 Mar 13:14:03 13:17:20 17° 67° (ENE) 13:20:50 435.225
ITAMSAT 1 06 Mar 13:16:45 13:20:51 25° 69° (ENE) 13:25:06 435.822/435.867
SPROUT 06 Mar 13:18:22 13:22:28 43° 286° (WNW) 13:26:29 437.525
ITUPSAT 1 06 Mar 13:40:24 13:44:47 35° 97° (E) 13:49:12 437.325
VERMONT LUNAR 06 Mar 14:32:51 14:35:01 16° 144° (SE) 14:37:17 437.305
ISS 06 Mar 14:35:31 14:38:37 42° 38° (NE) 14:41:43 145.825
SWISSCUBE 06 Mar 14:40:05 14:44:42 46° 287° (WNW) 14:49:16 437.505
BEESAT 06 Mar 14:48:00 14:52:31 41° 287° (WNW) 14:56:59 436.000
Oscar 19 06 Mar 14:50:58 14:53:07 12° 270° (W) 14:54:56 437.125/150
HORYU 2 06 Mar 14:51:18 14:55:21 37° 73° (ENE) 14:59:27 437.375
Gurwin Techsat 1B 06 Mar 14:51:47 14:56:56 52° 260° (W) 15:02:08 435.225
ITAMSAT 1 06 Mar 14:55:28 15:00:13 34° 263° (W) 15:04:56 435.822/435.867
PHONESAT 2.4 06 Mar 15:07:13 15:09:11 14° 143° (SE) 15:11:15 2401.200-2431.200
AO-7 06 Mar 15:10:17 15:18:08 49° 67° (ENE) 15:26:03 29.400- 29.500
ITUPSAT 1 06 Mar 15:18:51 15:22:29 21° 291° (WNW) 15:25:59 437.325
STARS 06 Mar 15:24:32 15:28:51 57° 100° (E) 15:33:09 437.465
KKS-1 06 Mar 15:27:56 15:32:22 80° 285° (WNW) 15:36:48 437.445
BEESAT 3 06 Mar 15:29:45 15:32:30 18° 111° (ESE) 15:35:24 437.485
YUBILEINY 06 Mar 15:37:56 15:46:06 48° 90° (E) 15:54:27 435.215
JAS-2 06 Mar 15:58:39 16:04:01 55° 72° (ENE) 16:10:05 435.910
BEESAT 2 06 Mar 15:59:04 16:02:45 34° 114° (ESE) 16:06:32 435.950
VERMONT LUNAR 06 Mar 16:09:07 16:12:36 89° 325° (NW) 16:16:07 437.305
ISS 06 Mar 16:13:01 16:14:49 14° 232° (SW) 16:16:30 145.825
AIST 2 06 Mar 16:20:59 16:24:09 21° 111° (ESE) 16:27:27 435.215
HORYU 2 06 Mar 16:29:21 16:32:12 16° 267° (W) 16:34:52 437.375
AUBIESAT-1 06 Mar 16:30:44 16:34:08 21° 100° (E) 16:37:48 437.475
M-CUBED/EXP-1 PRIME 06 Mar 16:32:13 16:35:54 25° 100° (E) 16:39:50 437.505
PHONESAT 2.4 06 Mar 16:43:39 16:47:17 79° 155° (SSE) 16:50:55 2401.200-2431.200
STARS 06 Mar 17:03:31 17:04:54 11° 293° (WNW) 17:06:02 437.465
AO-7 06 Mar 17:03:43 17:11:08 33° 263° (W) 17:18:22 29.400- 29.500
BEESAT 3 06 Mar 17:06:40 17:10:23 32° 305° (NW) 17:14:07 437.485
MOZHAYETS 4 06 Mar 17:09:51 17:14:28 61° 100° (E) 17:19:03
Cubesat XI-IV 06 Mar 17:16:20 17:20:41 27° 69° (ENE) 17:25:10 437.490
CUTE-I 06 Mar 17:23:43 17:28:19 31° 70° (ENE) 17:33:02 437.470
YUBILEINY 06 Mar 17:35:32 17:43:14 32° 288° (WNW) 17:50:46 435.215
BEESAT 2 06 Mar 17:37:59 17:41:02 19° 310° (NW) 17:44:01 435.950
JAS-2 06 Mar 17:46:14 17:49:49 16° 272° (W) 17:53:19 435.910
VERMONT LUNAR 06 Mar 17:47:32 17:50:44 33° 353° (N) 17:53:57 437.305
AIST 2 06 Mar 17:58:49 18:02:37 30° 306° (NW) 18:06:24 435.215
AUBIESAT-1 06 Mar 18:04:59 18:09:00 33° 291° (WNW) 18:13:10 437.475
M-CUBED/EXP-1 PRIME 06 Mar 18:06:54 18:10:45 29° 292° (WNW) 18:14:44 437.505
PRISM 06 Mar 18:15:47 18:18:43 19° 94° (E) 18:21:47 437.425
PHONESAT 2.4 06 Mar 18:22:32 18:25:55 36° 351° (N) 18:29:20 2401.200-2431.200
AIST 1 06 Mar 18:24:03 18:28:28 88° 76° (ENE) 18:32:50
MOZHAYETS 4 06 Mar 18:49:26 18:51:14 12° 293° (WNW) 18:52:46
PCSat 06 Mar 18:49:46 18:53:14 18° 106° (ESE) 18:56:56 145.827
O/OREOS (USA 219) 06 Mar 18:51:20 18:55:54 62° 68° (ENE) 19:00:24 437.305
Cubesat XI-IV 06 Mar 18:55:49 19:00:40 33° 263° (W) 19:05:29 437.490
CUTE-I 06 Mar 19:03:45 19:08:23 29° 264° (W) 19:12:57 437.470
GOMX 1 06 Mar 19:21:13 19:23:39 14° 68° (ENE) 19:26:19 467.674
CUBESAT XI-V 06 Mar 19:21:13 19:25:55 70° 283° (WNW) 19:30:34 437.345
VERMONT LUNAR 06 Mar 19:25:50 19:29:06 36° 10° (N) 19:32:21 437.305
HO-68 06 Mar 19:28:51 19:34:34 28° 65° (ENE) 19:40:30 435.675
STRAND 1 06 Mar 19:35:04 19:40:14 86° 101° (ESE) 19:45:22 437.568
DOVE 4 06 Mar 19:35:38 19:37:29 12° 68° (ENE) 19:39:36 437.250
BRITE-PL 06 Mar 19:36:27 19:41:16 31° 72° (ENE) 19:45:58 437.365/2234.400
COMPASS 1 06 Mar 19:44:04 19:44:26 10° 67° (ENE) 19:45:04 437.405
PRISM 06 Mar 19:50:35 19:54:17 29° 288° (WNW) 19:57:55 437.425
PHONESAT 2.4 06 Mar 20:01:27 20:04:51 36° 8° (N) 20:08:15 2401.200-2431.200
SEEDS 06 Mar 20:14:38 20:18:16 30° 73° (ENE) 20:21:59 437.485
CANX-2 06 Mar 20:24:34 20:28:40 55° 76° (ENE) 20:32:48 2200.000
PCSat 06 Mar 20:31:02 20:36:17 51° 300° (WNW) 20:41:35 145.827
CUBEBUG 2 06 Mar 20:38:01 20:40:21 15° 69° (ENE) 20:42:51 437.445
CUTE 1.7 + AOD 2 06 Mar 20:42:23 20:46:35 84° 78° (ENE) 20:50:48 437.475
CINEMA 3 06 Mar 20:45:24 20:49:39 34° 73° (ENE) 20:53:46 145.822/145.860
FUNcube-1 06 Mar 20:55:09 20:57:23 14° 69° (ENE) 20:59:48 145.935
GOMX 1 06 Mar 20:56:04 21:01:24 65° 259° (W) 21:06:28 467.674
UKube-1 06 Mar 20:56:54 20:59:10 14° 68° (ENE) 21:01:37 .
ZACube-1 06 Mar 20:57:47 21:00:19 16° 70° (ENE) 21:03:00 437.345
VERMONT LUNAR 06 Mar 21:03:40 21:07:09 72° 206° (SSW) 21:10:36 437.305
AAUSAT CUBESAT 2 06 Mar 21:09:21 21:13:29 79° 257° (WSW) 21:17:39 437.432
DOVE 4 06 Mar 21:09:46 21:14:52 66° 259° (W) 21:19:43 437.250
BRITE-PL 06 Mar 21:14:47 21:19:43 30° 264° (W) 21:24:23 437.365/2234.400
HO-68 06 Mar 21:15:06 21:22:00 50° 260° (W) 21:28:54 435.675
COMPASS 1 06 Mar 21:15:40 21:19:44 55° 260° (W) 21:23:49 437.405
UWE-3 06 Mar 21:25:28 21:29:36 41° 74° (ENE) 21:33:41 435.000/436.395/437.385
RS-15 06 Mar 21:29:45 21:38:12 28° 106° (ESE) 21:47:07 29.354- 29.394
Oscar 11 06 Mar 21:34:50 21:39:08 87° 260° (W) 21:43:27 145.826/435.025
PHONESAT 2.4 06 Mar 21:39:52 21:43:31 82° 204° (SSW) 21:47:08 2401.200-2431.200
GONETS M04 06 Mar 21:46:59 21:55:35 72° 94° (E) 22:04:14
DELFI C3 06 Mar 21:50:07 21:54:08 72° 259° (W) 21:58:10 145.870
SEEDS 06 Mar 21:51:20 21:54:11 17° 267° (W) 21:56:55 437.485
HUMSAT D 06 Mar 21:59:35 22:03:30 41° 74° (ENE) 22:07:25 437.325/437.525
DX 1 06 Mar 22:06:52 22:11:15 81° 258° (WSW) 22:15:40 434.975-435.025
TIGRISAT 06 Mar 22:08:47 22:10:41 13° 91° (E) 22:12:50 435.000
CUBEBUG 2 06 Mar 22:12:30 22:16:47 43° 261° (W) 22:20:56 437.445
